TIME,�g��[���C[MJ/h],����[MJ/h],�Ɩ�[MJ/h],�①��[MJ/h],�~�[[MJ/h],��y���[MJ/h],�Ǝ��q��[MJ/h],���̑�[MJ/h]
2003/6/1 0:00,0.0022,0,0.4751,0.5021,0.0325,0.541,0.038,0.5044
2003/6/1 0:15,0.0022,0,0.3908,0.1652,0.0325,0.428,0.0382,0.5524
2003/6/1 0:30,0.002,0,0.03,0.5154,0.0328,0.0572,0.0383,0.4625
2003/6/1 0:45,0.0022,0,0.0232,0.5043,0.0327,0.0573,0.0379,0.4408
2003/6/1 1:00,0.0022,0,0.0253,0.161,0.0318,0.0569,0.0399,0.4271
2003/6/1 1:15,0.002,0,0.023,0.5066,0.0315,0.0566,0.0379,0.431
2003/6/1 1:30,0.0022,0,0.022,0.4929,0.0317,0.0567,0.0373,0.4261
2003/6/1 1:45,0.0022,0,0.0222,0.1558,0.0315,0.0567,0.0372,0.4236
2003/6/1 2:00,0.002,0,0.0232,0.5142,0.0321,0.0572,0.0379,0.4373
2003/6/1 2:15,0.0022,0,0.0588,0.4968,0.0323,0.057,0.0755,0.4064
2003/6/1 2:30,0.0022,0,0.0251,0.1584,0.0321,0.0569,0.0373,0.429
2003/6/1 2:45,0.002,0.8237,0.0236,0.5093,0.0323,0.0573,0.0383,0.4349
2003/6/1 3:00,0.0022,0,0.0236,0.4971,0.0325,0.0572,0.038,0.4648
2003/6/1 3:15,0.0022,0,0.0583,0.1721,0.0324,0.0572,0.0773,0.4019
2003/6/1 3:30,0.0022,0,0.0256,0.4959,0.0325,0.0573,0.038,0.4352
2003/6/1 3:45,0.002,0,0.0239,0.4992,0.0327,0.0572,0.0382,0.4435
2003/6/1 4:00,0.0022,0,0.0236,0.1698,0.0323,0.0572,0.0392,0.4356
2003/6/1 4:15,0.0022,0,0.072,0.4935,0.0321,0.057,0.0795,0.3789
2003/6/1 4:30,0.002,0,0.024,0.4936,0.0321,0.0572,0.0377,0.4395
2003/6/1 4:45,0.0022,0,0.0251,0.1529,0.0321,0.0569,0.0379,0.4362
2003/6/1 5:00,0.0022,0,0.0275,0.5088,0.0321,0.0572,0.0377,0.4304
2003/6/1 5:15,0.002,0,0.0256,0.4935,0.0323,0.057,0.0379,0.4357
2003/6/1 5:30,0.0022,0,0.0596,0.1552,0.032,0.0569,0.0746,0.4046
2003/6/1 5:45,0.0022,0,0.0245,0.5052,0.032,0.057,0.0389,0.4355
2003/6/1 6:00,0.002,0,0.0301,0.4932,0.0324,0.0577,0.0405,0.4326
2003/6/1 6:15,0.0022,0,0.0249,0.1575,0.0321,0.0579,0.0377,0.4313
2003/6/1 6:30,0.0022,0,0.0687,0.5016,0.0321,0.0579,0.0776,0.4212
2003/6/1 6:45,0.002,0,0.0245,0.4886,0.032,0.0576,0.0379,0.4334
2003/6/1 7:00,0.0022,0,0.0912,0.1623,0.032,0.1407,0.0377,0.4291
2003/6/1 7:15,0.0022,0,0.5586,0.4982,0.0318,0.5594,0.041,0.4316
2003/6/1 7:30,0.002,0,0.5737,0.4383,2.7495,0.5265,0.0768,0.3758
2003/6/1 7:45,0.0022,0,0.5111,0.2498,0.0318,0.5442,0.0374,0.4228
2003/6/1 8:00,0.002,0,0.4982,0.503,0.0317,0.5147,0.037,0.4296
2003/6/1 8:15,0.0022,0,0.6159,0.5036,0.0323,0.5229,0.1656,0.3184
2003/6/1 8:30,0.0022,0,0.491,0.5021,0.0321,0.5309,0.0382,0.6045
2003/6/1 8:45,0.002,0,0.4903,0.4942,0.0323,0.5515,0.0452,0.7903
2003/6/1 9:00,0.0022,0,0.4825,0.1608,0.0318,0.5259,0.0379,0.6954
2003/6/1 9:15,0.0022,0,0.5524,0.508,0.0324,0.058,0.1126,0.5291
2003/6/1 9:30,0.0022,0,0.4836,0.5031,0.0328,0.0582,0.0438,0.5725
2003/6/1 9:45,0.002,0,0.5305,0.4893,0.033,0.0585,0.0841,0.3603
2003/6/1 10:00,0.0022,0,0.0858,0.1649,0.033,0.0583,0.0409,0.4172
2003/6/1 10:15,0.0022,0,0.0775,0.5119,0.0328,0.0583,0.0845,0.3767
2003/6/1 10:30,0.0022,0,0.0301,0.5026,0.033,0.0585,0.0432,0.4169
2003/6/1 10:45,0.0022,0,0.0288,0.1571,0.033,0.058,0.0438,0.4164
2003/6/1 11:00,0.002,0,0.0788,0.5162,0.0328,0.0585,0.0841,0.3653
2003/6/1 11:15,0.0022,0,0.0298,0.5016,0.0328,0.0583,0.0435,0.4196
2003/6/1 11:30,0.0022,0,0.0681,0.1981,0.0328,0.0583,0.0841,0.3815
2003/6/1 11:45,0.0022,0,0.0301,0.4771,0.0327,0.0582,0.0418,0.415
2003/6/1 12:00,0.0022,0,0.0276,0.5023,0.0328,0.0657,0.0436,0.4239
2003/6/1 12:15,0.002,0,0.0768,0.2418,0.0327,0.0583,0.0828,0.363
2003/6/1 12:30,0.0022,0,0.0292,0.4235,0.0328,0.0583,0.0436,0.4164
2003/6/1 12:45,0.0022,0,0.2503,0.5057,0.0328,0.2488,0.0857,0.3861
2003/6/1 13:00,0.0022,0,0.5511,0.5067,0.0327,0.5445,0.0419,0.4231
2003/6/1 13:15,0.002,0,0.5701,0.291,0.042,0.5465,0.0822,0.5921
2003/6/1 13:30,0.0022,0,0.5106,0.4236,0.8876,0.3629,0.0435,0.2782
2003/6/1 13:45,0.0022,0,0.4981,0.5135,0.0325,0.0583,0.0441,0.4127
2003/6/1 14:00,0.0022,0,0.5414,0.5095,0.0325,0.3701,0.0855,0.3743
2003/6/1 14:15,0.0022,0,0.4905,0.5041,0.0327,0.5376,0.0439,0.4154
2003/6/1 14:30,0.0022,0,0.5244,0.2606,0.0739,0.5364,0.0835,0.3735
2003/6/1 14:45,0.002,0,0.486,0.4159,1.5506,0.5469,0.04,0.7201
2003/6/1 15:00,0.0022,0,0.5198,0.5124,1.5492,0.6075,0.0851,0.7887
2003/6/1 15:15,0.0022,0,0.4853,0.5131,1.313,0.6512,0.0431,0.7711
2003/6/1 15:30,0.0022,0,0.4776,0.5167,0.2959,0.5692,0.0395,0.8712
2003/6/1 15:45,0.0022,0,0.4792,0.5512,0.0321,0.5568,0.0386,0.7849
2003/6/1 16:00,0.0022,0,0.474,0.5496,0.049,0.4756,0.0387,0.4216
2003/6/1 16:15,0.002,0,0.5448,0.5217,0.0324,0.5311,0.1071,0.3675
2003/6/1 16:30,0.0022,0,0.0341,0.6231,0.0327,0.058,0.0429,0.4542
2003/6/1 16:45,0.0022,0,0.071,0.5718,0.0325,0.058,0.0844,0.3728
2003/6/1 17:00,0.0022,0,0.0308,0.554,0.0325,0.0582,0.0441,0.4193
2003/6/1 17:15,0.002,0,0.0749,0.5403,0.0324,0.0579,0.0847,0.3627
2003/6/1 17:30,0.0022,0,0.0304,0.5331,0.0324,0.0579,0.0435,0.4131
2003/6/1 17:45,0.0022,0,0.0292,0.5262,0.0323,0.058,0.0436,0.4121
2003/6/1 18:00,0.002,0,0.0658,0.5206,0.0323,0.0576,0.0825,0.3701
2003/6/1 18:15,0.0022,0,0.0327,0.516,0.0323,0.0579,0.0436,0.4128
2003/6/1 18:30,0.0022,0,0.0661,0.5184,0.0328,0.0582,0.0854,0.3993
2003/6/1 18:45,0.0022,0,0.0333,0.5147,0.0328,0.0583,0.0444,0.416
2003/6/1 19:00,0.002,0,0.0775,0.5113,0.0328,0.0654,0.0841,0.378
2003/6/1 19:15,0.0022,0,0.0321,0.508,0.0327,0.058,0.0445,0.4159
2003/6/1 19:30,0.0022,0,0.0793,0.5046,0.0328,0.0582,0.0851,0.3627
2003/6/1 19:45,0.0022,0,0.1807,0.5023,0.0336,0.0582,0.0452,0.4484
2003/6/1 20:00,0.0022,0,0.5789,0.5098,0.0429,0.0582,0.0444,0.505
2003/6/1 20:15,0.0022,0,0.5285,0.5076,0.0429,0.0583,0.0426,1.7942
2003/6/1 20:30,0.002,0,0.5064,0.2588,0.0431,0.0583,0.0408,1.0025
2003/6/1 20:45,0.0022,0,0.5021,0.4031,0.0422,0.058,0.0426,0.9636
2003/6/1 21:00,0.0022,0,0.4959,0.5054,0.0425,0.0661,0.0432,1.0734
2003/6/1 21:15,0.0022,0,0.4932,0.504,0.0425,0.5413,0.0397,0.588
2003/6/1 21:30,0.002,0,0.4926,0.2808,0.0415,0.5867,0.042,0.7906
2003/6/1 21:45,0.0022,0,0.4882,0.3783,0.0413,0.5874,0.0425,0.789
2003/6/1 22:00,0.0022,0,0.4853,0.4985,0.0418,0.6042,0.0412,0.7968
2003/6/1 22:15,0.002,0,0.5181,0.3336,0.0416,0.5849,0.0789,0.7612
2003/6/1 22:30,0.0022,0,0.4853,0.3182,0.0415,0.5881,0.0423,0.7857
2003/6/1 22:45,0.0022,0,0.4887,0.4978,0.0412,0.6061,0.0423,0.7985
2003/6/1 23:00,0.002,0,0.157,0.3578,0.0413,0.1552,0.0802,0.5112
2003/6/1 23:15,0.0022,0,0.0264,0.2987,0.0416,0.0569,0.0392,0.4267
2003/6/1 23:30,0.0022,0,0.0304,0.4959,0.0418,0.0569,0.0426,0.4291
2003/6/1 23:45,0.002,0,0.0295,0.3637,0.0419,0.0573,0.0428,0.431
2003/6/2 0:00,0.0022,0,0.0756,0.2893,0.042,0.0572,0.0834,0.3753
2003/6/2 0:15,0.0022,0,0.0317,0.4974,0.042,0.057,0.0433,0.4272
2003/6/2 0:30,0.002,0,0.035,0.3421,0.0422,0.0576,0.0439,0.4306
2003/6/2 0:45,0.0022,0,0.0743,0.3105,0.0422,0.0573,0.0821,0.3839
2003/6/2 1:00,0.0022,0,0.032,0.4879,0.041,0.0566,0.0435,0.4255
2003/6/2 1:15,0.002,0,0.0321,0.2831,0.0405,0.0567,0.0426,0.4164
2003/6/2 1:30,0.0022,0,0.0317,0.3601,0.0406,0.0566,0.0431,0.4118
2003/6/2 1:45,0.002,0,0.0769,0.4844,0.0409,0.0569,0.0816,0.3813
2003/6/2 2:00,0.0022,0,0.032,0.2069,0.0413,0.0567,0.0432,0.4192
2003/6/2 2:15,0.0022,0,0.0312,0.4375,0.0415,0.057,0.0435,0.428
2003/6/2 2:30,0.002,0,0.0782,0.4884,0.0419,0.0572,0.0834,0.3773
2003/6/2 2:45,0.0022,0,0.0318,0.142,0.0422,0.0573,0.0441,0.4241
2003/6/2 3:00,0.0022,0,0.0317,0.5052,0.0426,0.0576,0.0448,0.433
2003/6/2 3:15,0.0022,0,0.0658,0.4696,0.0426,0.0575,0.0863,0.3979
2003/6/2 3:30,0.002,0,0.0344,0.1685,0.0418,0.057,0.0454,0.4166
2003/6/2 3:45,0.0022,0,0.0307,0.4905,0.0418,0.0573,0.0446,0.4261
2003/6/2 4:00,0.0022,0,0.0292,0.3429,0.0418,0.057,0.0438,0.4303
2003/6/2 4:15,0.002,0,0.0765,0.2984,0.0416,0.0572,0.0832,0.396
2003/6/2 4:30,0.0022,0,0.0315,0.4225,0.0418,0.057,0.0438,0.4313
2003/6/2 4:45,0.0022,0,0.0337,0.2066,0.0418,0.0573,0.0478,0.4152
2003/6/2 5:00,0.002,0,0.0791,0.4889,0.1256,0.0567,0.0845,0.3797
2003/6/2 5:15,0.0022,0,0.0321,0.3181,0.9098,0.057,0.0438,0.4359
2003/6/2 5:30,0.002,0,0.0341,0.3162,1.1582,0.0572,0.0454,0.4591
2003/6/2 5:45,0.0022,0,0.0806,0.3925,0.2608,0.0567,0.0844,0.3992
2003/6/2 6:00,0.0022,0,0.0333,0.2304,0.1488,0.0576,0.0436,0.4274
2003/6/2 6:15,0.002,0,0.1718,0.4877,0.147,0.0579,0.1754,0.2962
2003/6/2 6:30,0.0022,0,0.0327,0.288,0.1354,0.058,0.0468,0.4493
2003/6/2 6:45,0.0022,0,0.0685,0.3577,0.1331,0.0579,0.088,0.3934
2003/6/2 7:00,0.002,0,0.0369,0.4892,0.1289,0.3967,0.0516,0.5013
2003/6/2 7:15,0.0022,0,0.0779,0.183,0.1257,0.6382,0.0904,0.6466
2003/6/2 7:30,0.0022,0,0.0315,0.4687,0.1192,0.3766,0.0449,0.5312
2003/6/2 7:45,0.002,0,0.0325,0.4908,0.1187,0.0579,0.0435,0.4137
2003/6/2 8:00,0.0022,0,0.0305,0.1492,0.1142,0.0577,0.0432,0.4163
2003/6/2 8:15,0.0022,0,0.0305,0.5049,0.1106,0.0577,0.0432,0.4218
2003/6/2 8:30,0.002,0,0.0281,0.4954,0.1093,0.058,0.0432,0.4261
2003/6/2 8:45,0.0022,0,0.0314,0.1619,0.1086,0.0582,0.0429,0.418
2003/6/2 9:00,0.0022,0,0.0253,0.506,0.141,0.0582,0.0392,0.431
2003/6/2 9:15,0.0022,0,0.0297,0.4372,0.104,0.0582,0.0422,0.4262
2003/6/2 9:30,0.002,0,0.0719,0.2287,0.1453,0.0577,0.0785,0.3695
2003/6/2 9:45,0.0022,0,0.0248,0.502,0.1466,0.058,0.0383,0.4291
2003/6/2 10:00,0.0022,0,0.0284,0.3987,0.109,0.0582,0.0418,0.4234
2003/6/2 10:15,0.0022,0,0.0265,0.2723,0.1372,0.0579,0.038,0.4231
2003/6/2 10:30,0.002,0,0.0245,0.5039,0.1433,0.058,0.0382,0.4323
2003/6/2 10:45,0.0022,0,0.0723,0.378,0.1305,0.0583,0.0786,0.3825
2003/6/2 11:00,0.0022,0,0.0251,0.2994,0.1185,0.0583,0.0382,0.4232
2003/6/2 11:15,0.0022,0,0.0235,0.5077,0.1431,0.0582,0.0379,0.4332
2003/6/2 11:30,0.0022,0,0.0238,0.3744,0.142,0.0583,0.0377,0.4347
2003/6/2 11:45,0.002,0,0.0703,0.3046,0.1093,0.0582,0.0769,0.3724
2003/6/2 12:00,0.0022,0,0.0202,0.5118,0.1441,0.0658,0.0348,0.4425
2003/6/2 12:15,0.0022,0,0.0239,0.3836,0.1469,0.0583,0.038,0.4356
2003/6/2 12:30,0.0022,0,0.0206,0.3001,0.1083,0.0582,0.0353,0.4334
2003/6/2 12:45,0.0022,0,0.1632,0.5102,0.1378,0.1862,0.1688,0.354
2003/6/2 13:00,0.002,0,0.0279,0.3895,0.1414,0.6349,0.0428,0.7999
2003/6/2 13:15,0.0022,0,0.033,0.2949,0.132,0.6241,0.0435,0.7959
2003/6/2 13:30,0.0022,0,0.0317,0.5148,0.1205,0.5554,0.0439,0.8186
2003/6/2 13:45,0.0022,0,0.0328,0.4235,0.148,0.595,0.0454,0.7724
2003/6/2 14:00,0.0022,0,0.0315,0.2439,0.1469,0.556,0.0449,0.793
2003/6/2 14:15,0.0022,0,0.0327,0.5119,0.1135,0.1747,0.0448,0.5064
2003/6/2 14:30,0.0022,0,0.03,0.4332,0.1441,0.0586,0.0444,0.4326
2003/6/2 14:45,0.0022,0,0.0281,0.2291,0.146,0.0586,0.0412,0.42
2003/6/2 15:00,0.0022,0,0.0554,0.5072,0.1295,0.0585,0.0704,0.3982
2003/6/2 15:15,0.0022,0,0.05,0.4232,0.1192,0.058,0.0563,0.4141
2003/6/2 15:30,0.002,0,0.0253,0.2337,0.1421,0.0583,0.039,0.4271
2003/6/2 15:45,0.0022,0,0.0278,0.5026,0.1447,0.058,0.0426,0.4245
2003/6/2 16:00,0.0022,0,0.0713,0.3928,0.12,0.0583,0.0792,0.3848
2003/6/2 16:15,0.0022,0,0.0287,0.2628,0.1382,0.0583,0.0436,0.4206
2003/6/2 16:30,0.002,0,0.0328,0.5465,0.1453,0.0582,0.0436,0.4199
2003/6/2 16:45,0.0022,0,0.0276,0.5512,0.1488,0.0586,0.0419,0.4261
2003/6/2 17:00,0.0022,0,0.0667,0.4959,0.1053,0.0585,0.0848,0.3835
2003/6/2 17:15,0.0022,0,0.0336,0.6227,0.1479,0.0586,0.0474,0.4257
2003/6/2 17:30,0.0022,0,0.2428,0.5687,3.045,0.3129,0.0461,0.4239
2003/6/2 17:45,0.0022,0,0.6448,0.5473,5.2875,0.5744,0.1778,0.3753
2003/6/2 18:00,0.0022,0,0.4173,0.5433,0.4435,0.5443,0.0445,0.6042
2003/6/2 18:15,0.0022,0,0.3776,0.5332,0.0333,0.5553,0.0441,0.5491
2003/6/2 18:30,0.002,0,0.8487,0.5293,2.9462,0.5648,0.1106,0.6309
2003/6/2 18:45,0.0022,0,0.5687,0.5266,0.0416,0.5426,0.2026,0.811
2003/6/2 19:00,0.0022,0,0.563,0.5242,0.0425,0.5664,0.6777,0.6212
2003/6/2 19:15,0.0022,0,0.4928,0.5243,0.0423,0.5301,0.3519,0.4451
2003/6/2 19:30,0.0022,0,0.4877,0.521,0.0423,0.5473,0.1266,0.7095
2003/6/2 19:45,0.002,0,0.4889,0.5211,0.0425,0.5496,0.6337,0.5185
2003/6/2 20:00,0.0022,0,0.6038,0.521,0.0428,0.3135,0.5596,0.6134
2003/6/2 20:15,0.0022,0,0.502,0.5216,0.0433,0.139,0.0435,1.1444
2003/6/2 20:30,0.0022,0,0.5187,0.5131,0.0425,0.0583,0.0821,0.8866
2003/6/2 20:45,0.0022,0,0.4827,0.5116,0.0425,0.058,0.0442,0.9029
2003/6/2 21:00,0.002,0,0.5249,0.5194,0.0431,0.0583,0.0845,0.7816
2003/6/2 21:15,0.0022,0,0.2523,0.5121,0.0422,0.0582,0.0383,0.8328
2003/6/2 21:30,0.0022,0,0.0308,0.5108,0.0423,0.0582,0.0429,0.4434
2003/6/2 21:45,0.0022,0,0.0308,0.5102,0.0426,0.0583,0.0436,0.4464
2003/6/2 22:00,0.002,0,0.0265,0.5088,0.0425,0.0573,0.0397,0.4486
2003/6/2 22:15,0.0022,0,0.0291,0.5086,0.0428,0.0576,0.0435,0.4458
2003/6/2 22:30,0.0022,0,0.0272,0.5011,0.0422,0.0573,0.0429,0.4435
2003/6/2 22:45,0.002,0,0.0269,0.4969,0.0418,0.0573,0.0428,0.4422
2003/6/2 23:00,0.0022,0,0.0288,0.4913,0.0413,0.0567,0.0408,0.4393
2003/6/2 23:15,0.0022,0,0.0312,0.4958,0.0423,0.0575,0.041,0.4437
2003/6/2 23:30,0.0022,0,0.0625,0.4959,0.0426,0.0576,0.0847,0.4072
2003/6/2 23:45,0.002,0,0.0266,0.4916,0.0422,0.0573,0.0433,0.4467
2003/6/3 0:00,0.0022,0,0.0302,0.4883,0.042,0.0572,0.0431,0.4411
2003/6/3 0:15,0.0022,0,0.0308,0.2317,0.042,0.0576,0.0435,0.4376
2003/6/3 0:30,0.002,0,0.0672,0.435,0.0422,0.0572,0.084,0.3938
2003/6/3 0:45,0.0022,0,0.0317,0.4912,0.0419,0.0573,0.0441,0.4355
2003/6/3 1:00,0.0022,0,0.0318,0.2527,0.0409,0.0567,0.0431,0.4277
2003/6/3 1:15,0.002,0,0.0743,0.3948,0.0403,0.0566,0.0808,0.3876
2003/6/3 1:30,0.0022,0,0.0356,0.4811,0.0408,0.0569,0.0467,0.4258
2003/6/3 1:45,0.002,0,0.0308,0.2245,0.041,0.0567,0.0441,0.4336
2003/6/3 2:00,0.0022,0,0.0301,0.414,0.0413,0.0572,0.0435,0.4385
2003/6/3 2:15,0.002,0,0.0649,0.4864,0.0418,0.0573,0.0841,0.4108
2003/6/3 2:30,0.0022,0,0.0348,0.1688,0.0419,0.057,0.0469,0.4349
2003/6/3 2:45,0.0022,0,0.0311,0.465,0.0422,0.0576,0.0444,0.4359
2003/6/3 3:00,0.0022,0,0.068,0.4893,0.0425,0.0577,0.0838,0.399
2003/6/3 3:15,0.002,0,0.032,0.1309,0.0423,0.0573,0.0461,0.4359
2003/6/3 3:30,0.0022,0,0.0333,0.499,0.0426,0.0576,0.0471,0.4434
2003/6/3 3:45,0.0022,0,0.0667,0.1207,0.0426,0.0575,0.0841,0.4039
2003/6/3 4:00,0.0022,0,0.0334,0.5049,0.0428,0.0576,0.0465,0.4398
2003/6/3 4:15,0.0022,0,0.0344,0.2062,0.0425,0.0577,0.0475,0.4363
2003/6/3 4:30,0.002,0,0.0662,0.4707,0.0415,0.057,0.0835,0.4069
2003/6/3 4:45,0.0022,0,0.035,0.4795,0.0415,0.0569,0.0484,0.4307
2003/6/3 5:00,0.002,0,0.034,0.474,0.103,0.0573,0.0442,0.4458
2003/6/3 5:15,0.0022,0,0.07,0.3612,0.8725,0.0566,0.0863,0.4241
2003/6/3 5:30,0.0022,0,0.0369,0.1876,0.8352,0.057,0.048,0.4559
2003/6/3 5:45,0.002,0,0.0426,0.4087,0.231,0.057,0.0649,0.412
2003/6/3 6:00,0.0022,0,0.1724,0.1814,0.1597,0.0577,0.1708,0.3031
2003/6/3 6:15,0.002,0,0.0475,0.4729,0.1444,0.0579,0.0458,0.4418
2003/6/3 6:30,0.0022,0,0.5818,0.1303,1.2891,0.0577,0.0526,0.4097
2003/6/3 6:45,0.002,0,0.5603,0.4933,0.032,0.2383,0.0569,0.3976
2003/6/3 7:00,0.0022,0,0.6134,0.4022,0.0318,0.582,0.1351,0.4198
2003/6/3 7:15,0.0022,0,0.5701,0.2169,0.0318,0.5496,0.0978,0.3527
2003/6/3 7:30,0.002,0,0.2458,0.4684,0.0324,0.2737,0.0603,0.4203
2003/6/3 7:45,0.0022,0,0.0822,0.149,0.0323,0.0579,0.0996,0.3521
2003/6/3 8:00,0.0022,0,0.0806,0.4962,0.0324,0.0579,0.1017,0.3676
2003/6/3 8:15,0.0022,0,0.0475,0.138,0.0331,0.0582,0.0585,0.4082
2003/6/3 8:30,0.002,0,0.0969,0.5103,0.0327,0.0583,0.0998,0.3649
2003/6/3 8:45,0.0022,0,0.0475,0.491,0.0325,0.058,0.0595,0.4084
2003/6/3 9:00,0.0022,0,0.0815,0.1413,0.0324,0.0579,0.0972,0.3784
2003/6/3 9:15,0.0022,0,0.0765,0.5014,0.0328,0.058,0.0981,0.3875
2003/6/3 9:30,0.002,0,0.0458,0.4183,0.0328,0.0585,0.0567,0.4153
2003/6/3 9:45,0.0022,0,0.0871,0.2248,0.0328,0.058,0.0949,0.3725
2003/6/3 10:00,0.0022,0,0.0445,0.4977,0.0328,0.0583,0.056,0.4131
2003/6/3 10:15,0.0022,0,0.0858,0.3207,0.0327,0.0579,0.095,0.3758
2003/6/3 10:30,0.002,0,0.0464,0.3275,0.0327,0.0583,0.0566,0.4035
2003/6/3 10:45,0.0022,0,0.0891,0.4929,0.0327,0.0582,0.0935,0.3754
2003/6/3 11:00,0.0022,0,0.0406,0.2313,0.0324,0.0576,0.0531,0.412
2003/6/3 11:15,0.0022,0,0.0904,0.4203,0.0327,0.0583,0.0972,0.3704
2003/6/3 11:30,0.002,0,0.041,0.5013,0.0334,0.0583,0.0536,0.4226
2003/6/3 11:45,0.0022,0,0.0776,0.1495,0.0333,0.0585,0.0932,0.3923
2003/6/3 12:00,0.0022,0,0.0402,0.5043,0.0331,0.0657,0.0518,0.4202
2003/6/3 12:15,0.0022,0,0.0743,0.4964,0.0328,0.0583,0.0909,0.3787
2003/6/3 12:30,0.0022,0,0.0418,0.1473,0.0327,0.0582,0.0541,0.4127
2003/6/3 12:45,0.002,0,0.0871,0.5043,0.0327,0.0577,0.0933,0.372
2003/6/3 13:00,0.0022,0,0.0376,0.4771,0.0327,0.058,0.0514,0.4172
2003/6/3 13:15,0.0022,0,0.0736,0.175,0.0331,0.0585,0.0923,0.3851
2003/6/3 13:30,0.0022,0,0.0387,0.5066,0.033,0.0582,0.0497,0.4222
2003/6/3 13:45,0.0022,0,0.0729,0.4068,0.033,0.0582,0.0922,0.3876
2003/6/3 14:00,0.0022,0,0.0389,0.2539,0.033,0.0582,0.0511,0.4088
2003/6/3 14:15,0.002,0,0.0742,0.5046,0.033,0.0582,0.0926,0.3851
2003/6/3 14:30,0.0022,0,0.0325,0.3394,0.033,0.0583,0.0458,0.4255
2003/6/3 14:45,0.0022,0,0.0311,0.3302,0.0331,0.0583,0.0451,0.4192
2003/6/3 15:00,0.0022,0,0.0806,0.5082,0.0334,0.0585,0.085,0.3889
2003/6/3 15:15,0.0022,0,0.0331,0.2899,0.033,0.0582,0.0441,0.4235
2003/6/3 15:30,0.0022,0,0.0645,0.3869,0.0331,0.0583,0.084,0.3825
2003/6/3 15:45,0.002,0,0.0307,0.5072,0.0331,0.0582,0.0435,0.4268
2003/6/3 16:00,0.0022,0,0.0674,0.2575,0.0331,0.0585,0.0785,0.3895
2003/6/3 16:15,0.0022,0,0.0281,0.4251,0.0331,0.0583,0.0441,0.4232
2003/6/3 16:30,0.0022,0,0.031,0.5121,0.0331,0.0583,0.0442,0.4274
2003/6/3 16:45,0.0022,0,0.0694,0.5568,0.0334,0.0585,0.0845,0.4018
2003/6/3 17:00,0.0022,0,0.0333,0.554,0.0333,0.0583,0.0461,0.4281
2003/6/3 17:15,0.0022,0,0.0711,0.4959,0.033,0.0582,0.0883,0.3967
2003/6/3 17:30,0.002,0,0.1912,0.6286,4.5268,0.4173,0.0462,0.4283
2003/6/3 17:45,0.0022,0,0.2232,0.5875,1.9797,0.5427,0.0435,0.4303
2003/6/3 18:00,0.0022,0,0.5874,0.5545,0.5027,0.5518,0.0436,0.4808
2003/6/3 18:15,0.0022,0,0.6928,0.5403,0.0327,0.5648,0.0482,0.4962
2003/6/3 18:30,0.0022,0,0.5178,0.5373,0.0409,0.5651,0.3371,0.4532
2003/6/3 18:45,0.002,0,0.5003,0.5335,0.0422,0.552,0.5141,0.4366
2003/6/3 19:00,0.0022,0,0.4985,0.5298,0.0422,0.5603,0.1077,0.4342
2003/6/3 19:15,0.0022,0,0.4962,0.5232,0.0418,0.5593,0.0474,0.5023
2003/6/3 19:30,0.0022,0,0.5246,0.5194,0.0419,0.5877,0.0845,0.4736
2003/6/3 19:45,0.002,0,0.492,0.5152,0.0419,0.5472,0.0482,0.505
2003/6/3 20:00,0.0022,0,0.4882,0.5139,0.0423,0.5442,0.0458,0.5174
2003/6/3 20:15,0.0022,0,0.4892,0.5139,0.0426,0.5397,0.0484,0.5172
2003/6/3 20:30,0.0022,0,0.5214,0.5103,0.0426,0.5325,0.0883,0.4797
2003/6/3 20:45,0.002,0,0.4877,0.5043,0.042,0.5378,0.0495,0.5082
2003/6/3 21:00,0.0022,0,0.4861,0.5047,0.0425,0.5229,0.0497,0.5226
2003/6/3 21:15,0.0022,0,0.5174,0.503,0.0428,0.3161,0.0868,0.6801
2003/6/3 21:30,0.0022,0,0.488,0.501,0.0426,0.3154,0.051,0.6913
2003/6/3 21:45,0.002,0,0.5332,0.192,0.0422,0.5352,0.0909,0.4751
2003/6/3 22:00,0.0022,0,0.4877,0.5056,0.0418,0.526,0.0505,0.4991
2003/6/3 22:15,0.0022,0,0.2485,0.5001,0.0422,0.2799,0.0511,0.543
2003/6/3 22:30,0.0022,0,0.086,0.4982,0.0425,0.0572,0.0927,0.4562
2003/6/3 22:45,0.002,0,0.0408,0.1927,0.0428,0.0573,0.0534,0.5149
2003/6/3 23:00,0.0022,0,0.0899,0.5086,0.0426,0.0575,0.0981,0.4661
2003/6/3 23:15,0.0022,0,0.0409,0.4948,0.0422,0.0572,0.0526,0.5056
2003/6/3 23:30,0.0022,0,0.039,0.1816,0.0419,0.057,0.0524,0.5001
2003/6/3 23:45,0.002,0,0.0932,0.5033,0.0422,0.0572,0.0998,0.4471
2003/6/4 0:00,0.0022,0,0.0393,0.4906,0.0423,0.0573,0.0536,0.507
2003/6/4 0:15,0.0022,0,0.0948,0.1797,0.042,0.0572,0.0991,0.4488
2003/6/4 0:30,0.002,0,0.041,0.498,0.0423,0.0573,0.0543,0.5076
2003/6/4 0:45,0.0022,0,0.0917,0.4005,0.0425,0.0575,0.0995,0.4635
2003/6/4 1:00,0.0022,0,0.0458,0.2624,0.0412,0.0567,0.0576,0.4869
2003/6/4 1:15,0.002,0,0.4766,0.4836,0.0406,0.3012,0.0959,0.4418
2003/6/4 1:30,0.0022,0,0.3698,0.2883,0.0406,0.3452,0.0559,0.6444
2003/6/4 1:45,0.002,0,0.0816,0.3665,0.0413,0.0569,0.0984,0.8744
2003/6/4 2:00,0.0022,0,0.0439,0.4828,0.0415,0.0572,0.059,0.6483
2003/6/4 2:15,0.0022,0,0.088,0.1518,0.0416,0.0567,0.1004,0.3613
2003/6/4 2:30,0.002,0,0.0494,0.4988,0.042,0.0573,0.0599,0.4163
2003/6/4 2:45,0.0022,0,0.094,0.1699,0.0422,0.0573,0.1011,0.3754
2003/6/4 3:00,0.0022,0,0.0491,0.4794,0.0425,0.0572,0.0603,0.4136
2003/6/4 3:15,0.0022,0,0.0959,0.2242,0.0423,0.0575,0.102,0.3758
2003/6/4 3:30,0.002,0,0.0513,0.4247,0.0423,0.0572,0.0611,0.4162
2003/6/4 3:45,0.0022,0,0.09,0.2667,0.0425,0.0576,0.1027,0.3889
2003/6/4 4:00,0.0022,0,0.0491,0.379,0.0425,0.0573,0.0615,0.4209
2003/6/4 4:15,0.0022,0,0.0868,0.3074,0.0425,0.0573,0.1025,0.3848
2003/6/4 4:30,0.0022,0,0.0503,0.3308,0.0426,0.0576,0.0621,0.4105
2003/6/4 4:45,0.002,0,0.0942,0.3476,0.0425,0.0572,0.1054,0.3816
2003/6/4 5:00,0.0022,0,0.0503,0.2843,0.1048,0.0573,0.0632,0.4131
2003/6/4 5:15,0.0022,0,0.0884,0.3859,0.9308,0.0575,0.1028,0.3878
2003/6/4 5:30,0.0022,0,0.0752,0.2421,0.8643,0.057,0.0907,0.41
2003/6/4 5:45,0.002,0,0.0753,0.4251,0.4084,0.0572,0.0732,0.4049
2003/6/4 6:00,0.0022,0,0.1276,0.1996,0.1669,0.0577,0.1499,0.3331
2003/6/4 6:15,0.0022,0,0.1113,0.481,0.1463,0.058,0.1202,0.3698
2003/6/4 6:30,0.002,0,0.1015,0.4791,0.1189,0.0575,0.108,0.3511
2003/6/4 6:45,0.0022,0,0.0863,0.301,0.1225,0.0579,0.1038,0.3617
2003/6/4 7:00,0.002,0,0.0508,0.328,0.1221,0.0651,0.0664,0.4975
2003/6/4 7:15,0.0022,0,0.0444,0.3269,0.1142,0.2982,0.0567,0.5449
2003/6/4 7:30,0.0022,0,0.0468,0.3167,0.1119,0.5321,0.0592,0.411
2003/6/4 7:45,0.0022,0,0.0454,0.4946,0.11,0.0582,0.058,0.4038
2003/6/4 8:00,0.002,0,0.0406,0.2796,0.139,0.0583,0.0534,0.4121
2003/6/4 8:15,0.0022,0,0.0779,0.376,0.1188,0.058,0.0968,0.3751
2003/6/4 8:30,0.0022,0,0.0423,0.3213,0.1437,0.058,0.054,0.4081
2003/6/4 8:45,0.002,0,0.0416,0.3269,0.144,0.0582,0.0516,0.4042
2003/6/4 9:00,0.0022,0,0.0867,0.4939,0.143,0.0582,0.0917,0.3734
2003/6/4 9:15,0.0022,0,0.0353,0.2084,0.1112,0.0583,0.048,0.4162
2003/6/4 9:30,0.0022,0,0.0716,0.4595,0.1482,0.0583,0.0891,0.3865
2003/6/4 9:45,0.0022,0,0.0328,0.2779,0.1421,0.0583,0.0454,0.4206
2003/6/4 10:00,0.002,0,0.0305,0.3976,0.1476,0.0583,0.0474,0.4236
2003/6/4 10:15,0.0022,0,0.0806,0.4961,0.1172,0.0588,0.0861,0.3642
2003/6/4 10:30,0.0022,0,0.0317,0.1698,0.1326,0.058,0.0436,0.4163
2003/6/4 10:45,0.002,0,0.0301,0.5008,0.1441,0.0582,0.0416,0.4213
2003/6/4 11:00,0.0022,0,0.077,0.5013,0.147,0.0588,0.0819,0.3789
2003/6/4 11:15,0.0022,0,0.0314,0.1731,0.1257,0.0586,0.0432,0.4224
2003/6/4 11:30,0.0022,0,0.0301,0.5079,0.1263,0.0583,0.0435,0.4281
2003/6/4 11:45,0.0022,0,0.0727,0.4486,0.1431,0.0585,0.0808,0.3809
2003/6/4 12:00,0.0022,0,0.0323,0.23,0.1411,0.0658,0.0431,0.415
2003/6/4 12:15,0.002,0,0.0278,0.5001,0.1148,0.058,0.039,0.4226
2003/6/4 12:30,0.0022,0,0.0295,0.3604,0.1313,0.0582,0.0426,0.4193
2003/6/4 12:45,0.0022,0,0.0716,0.3269,0.1417,0.058,0.0788,0.3869
2003/6/4 13:00,0.0022,0,0.0291,0.5063,0.1444,0.0585,0.0429,0.4304
2003/6/4 13:15,0.0022,0,0.0246,0.2913,0.1166,0.0585,0.0393,0.4275
2003/6/4 13:30,0.002,0,0.0255,0.401,0.1355,0.058,0.0393,0.4261
2003/6/4 13:45,0.0022,0,0.0762,0.5033,0.142,0.0583,0.0821,0.3819
2003/6/4 14:00,0.0022,0,0.0243,0.234,0.1388,0.0583,0.0386,0.4264
2003/6/4 14:15,0.0022,0,0.0265,0.4607,0.1014,0.0583,0.0387,0.4235
2003/6/4 14:30,0.002,0,0.0266,0.5059,0.1407,0.0583,0.0406,0.4271
2003/6/4 14:45,0.0022,0,0.0753,0.1921,0.1416,0.0582,0.0801,0.3692
2003/6/4 15:00,0.0022,0,0.0258,0.5095,0.1368,0.0586,0.0395,0.4272
2003/6/4 15:15,0.0022,0,0.0256,0.5093,0.1076,0.0585,0.0387,0.429
2003/6/4 15:30,0.0022,0,0.0243,0.1774,0.1423,0.0585,0.0382,0.4189
2003/6/4 15:45,0.0022,0,0.073,0.5256,0.1411,0.0585,0.0773,0.3879
2003/6/4 16:00,0.0022,0,0.0256,0.5099,0.121,0.0585,0.0387,0.4258
2003/6/4 16:15,0.002,0,0.0246,0.1827,0.1243,0.0585,0.0387,0.4283
2003/6/4 16:30,0.0022,0,0.0311,0.525,0.144,0.0586,0.0425,0.4271
2003/6/4 16:45,0.0022,0,0.0616,0.5138,0.1414,0.0588,0.0808,0.3921
2003/6/4 17:00,0.0022,0,0.0261,0.507,0.1066,0.0592,0.0395,0.4245
2003/6/4 17:15,0.0022,0,0.0282,0.1891,0.1428,0.1264,0.0426,0.6062
2003/6/4 17:30,0.0022,0,0.0255,0.5237,2.775,0.1656,0.0393,0.4681
2003/6/4 17:45,0.0022,0,0.2405,0.5564,3.4016,0.5469,0.0802,0.3976
2003/6/4 18:00,0.0022,0,0.594,0.5545,0.2563,0.5518,0.0406,0.4798
2003/6/4 18:15,0.002,0,0.9924,0.5036,0.0328,0.4548,0.0412,0.4344
2003/6/4 18:30,0.0022,0,0.9697,0.6175,0.2187,0.0585,0.0403,0.4069